Regional Weather Roundup
Issued by NWS

Home | Current Version | Previous Version | Graphics & Text | Print | Product List | Glossary On
Versions: 1 2 3 4 5 6 7 8 9 10 11 12 13 14 15 16 17 18 19 20 21 22 23 24 25 26 27 28 29 30 31 32 33 34 35 36 37 38 39 40 41 42 43 44 45 46 47 48 49 50
000
ASUS43 KMPX 142101
RWRMN
WEATHER ROUNDUP FOR MINNESOTA
NATIONAL WEATHER SERVICE TWIN CITIES/CHANHASSEN MN
300 PM CST SUN FEB 14 2016


NOTE: "FAIR" INDICATES FEW OR NO CLOUDS BELOW 12,000 FEET WITH NO
SIGNIFICANT WEATHER AND/OR OBSTRUCTIONS TO VISIBILITY. N/A MEANS
CURRENT SKY AND/OR WEATHER CONDITIONS ARE NOT AVAILABLE.

MNZ060>063-068>070-142200-
   Twin Cities Metro

CITY           SKY/WX    TMP DP  RH WIND       PRES   REMARKS
TWIN CITIES    LGT SNOW  18  12  77 SE12      29.92F WCI   5
ST PAUL        LGT SNOW  19  11  70 SE15      29.94F WCI   5
CRYSTAL        LGT SNOW  19  11  70 SE13      29.90F WCI   6
BLAINE         LGT SNOW  19  12  73 SE14G20   29.91F WCI   6
LAKEVILLE      FLURRIES  18  12  79 SE13      29.91S WCI   4
EDEN PRAIRIE   CLOUDY    19  11  70 SE13      29.90F WCI   6
SOUTH ST PAUL  FLURRIES  19  12  73 SE9       29.93F WCI   9
LAKE ELMO      FLURRIES  19  12  73 SE13G18   29.94S WCI   7
$$
MNZ001>005-007-008-013>017-022>024-027-028-142200-
   Northwest Minnesota

CITY           SKY/WX    TMP DP  RH WIND       PRES   REMARKS
BEMIDJI        LGT SNOW  14   9  81 S14       29.77F WCI  -1
HALLOCK        LGT SNOW  18  14  86 S21       29.73S WCI   1
ROSEAU         LGT SNOW  16  10  79 S14       29.75F WCI   1
WARROAD        LGT SNOW  16  10  79 S9        29.76F VSB 1   WCI   4
THIEF RVR FALL CLOUDY    16  12  86 S17       29.75F WCI   0
CROOKSTON      FOG       18  16  93 S23       29.77F VSB 1   WCI   0
FOSSTON        LGT SNOW  14  10  85 S20       29.76S WCI  -3
DETROIT LAKES  LGT SNOW  18  14  86 S14       29.78S WCI   4
MOORHEAD       MIX PCPN  18  12  79 S18       29.79S WCI   2
PARK RAPIDS    LGT SNOW  16   9  74 S13       29.78F WCI   2
MAHNOMEN       FLURRIES  15  11  85 S15G21    29.76F WCI   0
$$
MNZ006-009>011-018-025>026-142200-
   North Central Minnesota

CITY           SKY/WX    TMP DP  RH WIND       PRES   REMARKS
BAUDETTE       LGT SNOW  13   7  77 S14       29.77F VSB 3/4 WCI  -2
FLAG ISLAND    LGT SNOW  12   9  85 S22       29.75F WCI  -7
INTL FALLS     SNOW      12   7  80 SE9       29.82F VSB 1/2 WCI   0
WASKISH        LGT SNOW  16  10  79 S9        29.79F WCI   4
BIG FORK       CLOUDY    14   9  79 S9        29.81F VSB 1/2 WCI   2
LONGVILLE      LGT SNOW  14  10  85 SE10      29.82S VSB 1   WCI   1
GRAND RAPIDS   CLOUDY    12   7  79 S14       29.83S WCI  -3
CRANE LAKE     CLOUDY    16  10  79 S6        29.86F WCI   7
ORR            LGT SNOW  12   7  79 S13G18    29.81S WCI  -3
COOK           LGT SNOW  12   7  79 SE12G17   29.84S WCI  -2
WALKER         LGT SNOW  13   9  81 SE12      29.80S WCI   0
$$
MNZ012-019>021-037-142200-
   Northeast Minnesota

CITY           SKY/WX    TMP DP  RH WIND       PRES   REMARKS
DULUTH         FLURRIES  13   5  70 SE12      29.89S WCI  -1
ELY            LGT SNOW  14   9  79 S10       29.86F WCI   1
HIBBING        FLURRIES  12   6  77 SE13      29.84F WCI  -3
EVELETH        LGT SNOW  14   9  79 SE9       29.86F WCI   2
DULUTH HARBOR  CLOUDY    18   9  68 S9        29.96F WCI   6
TWO HARBORS    LGT SNOW  18  10  73 S8        29.91F WCI   7
SILVER BAY     LGT SNOW  16   7  67 SE3       29.92F
GRAND MARAIS     N/A     20   8  60 S10       30.01F WCI   9
G MARAIS ARPRT FLURRIES  12   1  62 S8G17     29.91F WCI   1
$$
MNZ029>031-032-039>041-046>048-054>057-064-142200-
   West Central Minnesota

CITY           SKY/WX    TMP DP  RH WIND       PRES   REMARKS
FERGUS FALLS   LGT SNOW  18  12  79 S17       29.84S WCI   2
WHEATON        SUNNY     19  16  86 S13       29.83S WCI   7
MORRIS         CLOUDY    19  14  79 S14       29.81F WCI   6
ALEXANDRIA     CLOUDY    17  11  77 S16       29.82R HAZE    WCI   2
ELBOW LAKE     CLOUDY    17  14  87 S14       29.82S FOG     WCI   3
WADENA         LGT SNOW  16  10  79 S14       29.81R WCI   1
GLENWOOD       LGT SNOW  18  14  86 S14       29.83R WCI   4
APPLETON       CLOUDY    19  14  79 S8        29.84R WCI   9
BENSON         CLOUDY    19  12  73 SW13      29.84S WCI   7
ORTONVILLE     CLOUDY    19  12  73 S9        29.81F WCI   9
MADISON        CLOUDY    21  16  79 S10       29.83S WCI  10
WILLMAR        LGT SNOW  21  18  86 S6        29.86S WCI  14
$$
MNZ033>034-036-042>043-049>051-058-059-142200-
   Central Minnesota

CITY           SKY/WX    TMP DP  RH WIND       PRES   REMARKS
ST CLOUD       LGT SNOW  18  11  74 S15       29.87F WCI   4
SAUK CENTRE    LGT SNOW  17  13  86 S15       29.84R VSB 1   WCI   2
PAYNESVILLE    LGT SNOW  19  15  85 S10       29.86S WCI   7
AITKIN         LGT SNOW  18   9  68 SE8       29.84F WCI   7
PINE RIVER     LGT SNOW  16  10  79 S9        29.86S WCI   4
BRAINERD       LGT SNOW  15  10  80 S8        29.84S WCI   4
STAPLES        LGT SNOW  16  12  86 S10       29.82S VSB 3/4 WCI   3
LONG PRAIRIE   LGT SNOW  18  14  86 SE15G21   29.83S VSB 1   WCI   3
LITTLE FALLS   LGT SNOW  19  12  73 S14       29.86S WCI   6
LITCHFIELD     LGT SNOW  19  16  86 SE8       29.87S WCI   9
BUFFALO        FLURRIES  19  12  72 SE10      29.90F WCI   8
MAPLE LAKE     LGT SNOW  20  14  78 SE8       29.89S WCI  11
$$
MNZ037-044-045-052-053-142200-
   East Central Minnesota

CITY           SKY/WX    TMP DP  RH WIND       PRES   REMARKS
PRINCETON      FLURRIES  19  12  73 SE14      29.88F WCI   6
MORA           FLURRIES  18  10  73 S9        29.90F WCI   6
CAMBRIDGE      FLURRIES  19   9  63 SE8G17    29.89S WCI   9
RUSH CITY      CLOUDY    18  11  74 SE10      29.92S WCI   6
MOOSE LAKE     CLOUDY    18   7  62 S9        29.88F WCI   6
HINCKLEY       CLOUDY    19  10  68 SE12      29.91F WCI   7
CLOQUET        FLURRIES  14   7  73 SE5       29.88F WCI   6
MCGREGOR       CLOUDY    18   9  68 S13       29.87F WCI   4
$$
MNZ071>073-080-081-089-090-097-098-142200-
   Southwest Minnesota

CITY           SKY/WX    TMP DP  RH WIND       PRES   REMARKS
MONTEVIDEO     CLOUDY    21  16  79 S12       29.85F WCI   9
GRANITE FALLS  CLOUDY    22  17  82 S12       29.86S WCI  10
CANBY          CLOUDY    25  18  77 SW6       29.83S WCI  18
MARSHALL       CLOUDY    21  14  74 S10       29.83S WCI  10
REDWOOD FALLS  LGT SNOW  20  15  81 S16       29.85F WCI   6
OLIVIA         LGT SNOW  21  16  79 S12       29.85S WCI   9
PIPESTONE      CLOUDY    21  12  68 SW7       29.78S WCI  13
WINDOM         CLOUDY    19  14  79 SE12      29.82F WCI   7
WORTHINGTON    CLOUDY    18  12  79 S8        29.81F WCI   7
JACKSON        FLURRIES  21  14  73 S9        29.83F WCI  11
TRACY          CLOUDY    21  16  80 S9        29.82F WCI  10
SLAYTON        CLOUDY    19  17  90 SE8       29.80S WCI   9
$$
MNZ065>067-074>077-082>085-091>093-142200-
   South Central Minnesota

CITY           SKY/WX    TMP DP  RH WIND       PRES   REMARKS
MANKATO        CLOUDY    19  12  73 S13       29.89R WCI   7
NEW ULM        LGT SNOW  19  12  73 S15       29.88R WCI   5
ST JAMES       LGT SNOW  21  18  86 SE13      29.88R WCI   9
FAIRMONT       CLOUDY    19  12  73 SE15      29.85R WCI   5
GLENCOE        CLOUDY    20  16  82 SE9G18    29.88F WCI  10
FARIBAULT      CLOUDY    18  12  79 SE15      29.90F WCI   3
OWATONNA       LGT SNOW  18  10  73 SE18G25   29.88F WCI   2
WASECA         CLOUDY    19  14  79 SE14G22   29.90S WCI   6
ALBERT LEA     LGT SNOW  18  12  79 SE13      29.87F WCI   4
$$
MNZ078>079-086>088-094>096-142200-
   Southeast Minnesota

CITY           SKY/WX    TMP DP  RH WIND       PRES   REMARKS
ROCHESTER      CLOUDY    16  10  77 SE20      29.90F BLWGSNOWWCI  -1
STANTON        LGT SNOW  20  12  70 SE12G18   29.91F WCI   8
DODGE CENTER   LGT SNOW  18  12  79 SE23      29.88F WCI   0
WINONA         CLOUDY    23  12  63 S6        29.99F WCI  16
AUSTIN           N/A    N/A N/A N/A SE14      29.89F
PRESTON        FLURRIES  16  10  76 SE13      29.92F WCI   2
$$
ABBREVIATIONS USED IN REMARKS
   TC - TEMPERATURES IN CELSIUS
  WCI - WIND CHILL INDEX
   HX - HEAT INDEX
  VSB - VISIBILITY
$$



USA.gov is the U.S. government's official web portal to all federal, state and local government web resources and services.